User: anonymous   Login
Location: Risskov
(56.1972°N, 10.2480°E)
Time: 19:51:17
(UTC+00:00)
Language:

Cosmos 1151 Rocket - Orbit

View from above orbital plane
View from above orbital plane
View from above satellite
View from above satellite

Ground track
Ground track

The orbit data is extracted from the following two-line orbital elements,

1 11672U 80005B   20269.86608976 +.00000089 +00000-0 +69880-5 0  9992
2 11672 082.5179 029.7415 0015437 307.4127 052.5685 14.88007093180238
Epoch (UTC): 25 September 2020 20:47:10
Eccentricity: 0.0015437
inclination: 82.5179°
perigee height: 593 km
apogee height: 615 km
right ascension of ascending node: 29.7415°
argument of perigee: 307.4127°
revolutions per day: 14.88007093
mean anomaly at epoch: 52.5685°
orbit number at epoch: 18023

The dashed part of the orbit path shows where the satellite is in the earth's shadow,  

DLR